Hourly Data Report for October 01, 2014

All times are specified in Local Standard Time (LST). Add 1 hour to adjust for Daylight Saving Time where and when it is observed.

MONCTON INTL A
NEW BRUNSWICK

46°06'44.000" N
64°40'43.000" W
70.70 m
8103201
71705
YQM

Download Data

Hourly Data (October 2014)
Hourly Data Report for October 1, 2014
Temp Definition
°C
Dew Point Temp Definition
°C
Rel Hum Definition
%
Wind Dir Definition
10's deg

Wind Spd Definition
km/h
Visibility Definition
km
Stn Press Definition
kPa
Hmdx Definition


Wind Chill Definition


Weather Definition


TIME
00:00 Legend Double Dagger 11.0 10.6 97 34 10 1.0 101.06     Fog
01:00 Legend Double Dagger 11.0 10.6 97 35 10 4.8 101.06     Fog
02:00 Legend Double Dagger 11.1 10.7 97 36 14 4.0 101.08     Fog
03:00 Legend Double Dagger 10.9 10.3 96 36 11 4.0 101.09     Drizzle,Fog
04:00 Legend Double Dagger 10.8 10.4 97 2 15 3.2 101.12     Drizzle,Fog
05:00 Legend Double Dagger 10.7 10.1 96 36 12 6.4 101.17     Fog
06:00 Legend Double Dagger 10.6 10.0 96 1 13 19.3 101.20     LegendNANA
07:00 Legend Double Dagger 10.7 9.8 94 2 13 16.1 101.27     LegendNANA
08:00 Legend Double Dagger 10.9 9.7 92 3 18 16.1 101.31     Cloudy
09:00 Legend Double Dagger 10.7 9.8 94 6 15 12.9 101.37     LegendNANA
10:00 Legend Double Dagger 11.3 9.1 86 5 18 24.1 101.39     LegendNANA
11:00 Legend Double Dagger 12.1 9.0 81 5 16 24.1 101.38     Cloudy
12:00 Legend Double Dagger 12.4 8.9 79 3 21 24.1 101.39     LegendNANA
13:00 Legend Double Dagger 11.7 8.8 82 5 17 24.1 101.36     LegendNANA
14:00 Legend Double Dagger 11.2 8.8 85 4 19 19.3 101.34     Cloudy
15:00 Legend Double Dagger 11.4 8.1 80 4 18 24.1 101.35     LegendNANA
16:00 Legend Double Dagger 11.3 6.9 74 3 19 24.1 101.38     LegendNANA
17:00 Legend Double Dagger 10.7 7.1 78 3 16 24.1 101.40     Cloudy
18:00 Legend Double Dagger 10.1 6.8 80 3 15 24.1 101.43     LegendNANA
19:00 Legend Double Dagger 7.7 5.7 87 6 6 24.1 101.53     LegendNANA
20:00 Legend Double Dagger 4.8 4.1 95 2 7 24.1 101.56     Mainly Clear
21:00 Legend Double Dagger 5.7 5.1 96 3 5 24.1 101.56     LegendNANA
22:00 Legend Double Dagger 3.1 2.4 95 2 8 24.1 101.55     LegendNANA
23:00 Legend Double Dagger 3.9 3.3 96 1 7 24.1 101.56     Mainly Clear

Notes on Data Quality.

Legend

  • E = Estimated
  • M = Missing
  • NA = Not Available
  • ‡ = Partner data that is not subject to review by the National Climate Archives
Date modified: